Weather History for KRZL - August, 2013

Change the Weather History Date:

Thursday, August 1, 2013

  Actual Average (KVPZ) Record (KVPZ)
Temperature  
Mean Temperature 68 °F 72 °F  
Max Temperature 78 °F 82 °F 92 °F (2006)
Min Temperature 57 °F 62 °F 56 °F (1998)
Degree Days  
Heating Degree Days 0 0  
Month to date heating degree days 0  
Since 1 June heating degree days 45  
Since 1 July heating degree days 4  
Cooling Degree Days 4 7  
Month to date cooling degree days 7  
Year to date cooling degree days 458  
Since 1 June cooling degree days 411  
Growing Degree Days 18 (Base 50)    
Moisture  
Dew Point 57 °F    
Average Humidity 72    
Maximum Humidity 100    
Minimum Humidity 34    
Precipitation  
Precipitation 0.00 in 0.14 in 1.38 in (2014)
Month to date precipitation 0.14  
Year to date precipitation 21.37  
Sea Level Pressure  
Sea Level Pressure 29.98 in    
Wind  
Wind Speed 6 mph (West)    
Max Wind Speed 15 mph    
Max Gust Speed 25 mph    
Visibility 8 miles    
Events Fog    
T = Trace of Precipitation, MM = Missing Value Source: NWS Daily Summary

Daily Weather History Graph

Daily Weather History Graph

Search for Another Location

Airport or City:

Trip Planner

Search our weather history database for the weather conditions in past years. The results will help you decide how hot, cold, wet, or windy it might be!

Date:

Astronomy

Aug. 01, 2013 Rise Set
Actual Time 5:45 AM CDT 8:04 PM CDT
Civil Twilight 5:14 AM CDT 8:35 PM CDT
Nautical Twilight 4:36 AM CDT 9:13 PM CDT
Astronomical Twilight 3:53 AM CDT 9:55 PM CDT
Moon 1:20 AM CDT (8/1) 4:13 PM CDT (8/1)
Length of Visible Light 15h 20m
Length of Day
14h 19m
Waning Crescent, 23% of the Moon is Illuminated
Aug 1
Waning Crescent
Aug 6
New
Aug 14
First Quarter
Aug 20
Full
Aug 28
Last Quarter

Hourly Weather History & Observations

Time (CDT) Temp. Dew Point Humidity Pressure Visibility Wind Dir Wind Speed Gust Speed Precip Events Conditions
12:15 AM 62.6 °F 62.6 °F 100% 29.99 in 1.8 mi WSW 4.6 mph - N/A   Mostly Cloudy
12:35 AM 62.6 °F 60.8 °F 94% 29.98 in 1.8 mi WSW 6.9 mph - N/A   Mist
12:55 AM 62.6 °F 62.6 °F 100% 29.97 in 3.0 mi West 4.6 mph - N/A   Scattered Clouds
1:15 AM 62.6 °F 62.6 °F 100% 29.97 in 4.0 mi West 5.8 mph - N/A   Scattered Clouds
1:35 AM 62.6 °F 62.6 °F 100% 29.97 in 5.0 mi West 5.8 mph - N/A   Clear
1:55 AM 62.6 °F 62.6 °F 100% 29.96 in 5.0 mi WNW 4.6 mph - N/A   Clear
2:15 AM 62.6 °F 62.6 °F 100% 29.96 in 4.0 mi West 4.6 mph - N/A   Clear
2:35 AM 62.6 °F 62.6 °F 100% 29.96 in 4.0 mi West 4.6 mph - N/A   Clear
2:55 AM 62.6 °F 62.6 °F 100% 29.97 in 7.0 mi WNW 5.8 mph - N/A   Clear
3:15 AM 62.6 °F 62.6 °F 100% 29.97 in 7.0 mi WNW 3.5 mph - N/A   Clear
3:35 AM 62.6 °F 60.8 °F 94% 29.97 in 7.0 mi WNW 3.5 mph - N/A   Clear
3:55 AM 60.8 °F 60.8 °F 100% 29.97 in 5.0 mi WNW 3.5 mph - N/A   Clear
4:15 AM 60.8 °F 60.8 °F 100% 29.98 in 3.0 mi West 3.5 mph - N/A   Clear
4:35 AM 59.0 °F 59.0 °F 100% 29.97 in 1.0 mi Calm Calm - N/A   Mist
4:55 AM 60.8 °F 59.0 °F 94% 29.98 in 0.5 mi West 4.6 mph - N/A Fog Fog
5:15 AM 60.8 °F 60.8 °F 100% 29.98 in 0.2 mi West 3.5 mph - N/A Fog Fog
5:35 AM 60.8 °F 59.0 °F 94% 29.99 in 0.2 mi Calm Calm - N/A Fog Fog
5:55 AM 59.0 °F 59.0 °F 100% 29.99 in 0.2 mi Calm Calm - N/A Fog Fog
6:15 AM 59.0 °F 59.0 °F 100% 30.00 in 0.2 mi Calm Calm - N/A Fog Fog
6:35 AM 59.0 °F 59.0 °F 100% 30.00 in 0.2 mi WSW 3.5 mph - N/A Fog Fog
6:55 AM 59.0 °F 59.0 °F 100% 30.01 in 0.8 mi West 3.5 mph - N/A   Mostly Cloudy
7:15 AM 60.8 °F 60.8 °F 100% 30.00 in 3.0 mi WSW 3.5 mph - N/A   Clear
7:35 AM 60.8 °F 60.8 °F 100% 30.00 in 5.0 mi Calm Calm - N/A   Clear
7:55 AM 62.6 °F 62.6 °F 100% 30.00 in 10.0 mi West 3.5 mph - N/A   Clear
8:15 AM 64.4 °F 64.4 °F 100% 30.00 in 10.0 mi WSW 3.5 mph - N/A   Clear
8:35 AM 68.0 °F 66.2 °F 94% 30.00 in 10.0 mi WSW 4.6 mph - N/A   Clear
8:55 AM 68.0 °F 68.0 °F 100% 30.00 in 10.0 mi WSW 5.8 mph - N/A   Clear
9:15 AM 69.8 °F 68.0 °F 94% 30.00 in 10.0 mi West 9.2 mph - N/A   Clear
9:35 AM 71.6 °F 66.2 °F 83% 30.00 in 10.0 mi West 10.4 mph - N/A   Clear
9:55 AM 73.4 °F 64.4 °F 73% 30.00 in 10.0 mi West 8.1 mph - N/A   Clear
10:15 AM 73.4 °F 62.6 °F 69% 30.00 in 10.0 mi West 11.5 mph 17.3 mph N/A   Clear
10:35 AM 73.4 °F 60.8 °F 65% 30.00 in 10.0 mi West 10.4 mph - N/A   Clear
10:55 AM 75.2 °F 62.6 °F 65% 30.00 in 10.0 mi West 11.5 mph - N/A   Clear
11:15 AM 77.0 °F 60.8 °F 57% 30.00 in 10.0 mi West 10.4 mph 17.3 mph N/A   Clear
11:35 AM 77.0 °F 57.2 °F 50% 30.00 in 10.0 mi WNW 11.5 mph 16.1 mph N/A   Scattered Clouds
11:55 AM 77.0 °F 55.4 °F 47% 30.00 in 10.0 mi WNW 9.2 mph - N/A   Scattered Clouds
12:15 PM 78.8 °F 55.4 °F 44% 30.00 in 10.0 mi WNW 10.4 mph 16.1 mph N/A   Scattered Clouds
12:35 PM 77.0 °F 55.4 °F 47% 30.00 in 10.0 mi WNW 9.2 mph 16.1 mph N/A   Mostly Cloudy
12:55 PM 77.0 °F 51.8 °F 41% 29.99 in 10.0 mi West 13.8 mph 21.9 mph N/A   Scattered Clouds
1:15 PM 78.8 °F 55.4 °F 44% 29.99 in 10.0 mi NW 10.4 mph 17.3 mph N/A   Scattered Clouds
1:35 PM 78.8 °F 53.6 °F 42% 29.99 in 10.0 mi WNW 9.2 mph 17.3 mph N/A   Mostly Cloudy
1:55 PM 77.0 °F 53.6 °F 44% 29.99 in 10.0 mi WNW 9.2 mph - N/A   Scattered Clouds
2:15 PM 78.8 °F 51.8 °F 39% 29.99 in 10.0 mi West 13.8 mph 25.3 mph N/A   Scattered Clouds
2:35 PM 78.8 °F 50.0 °F 36% 29.99 in 10.0 mi West 15.0 mph 21.9 mph N/A   Scattered Clouds
2:55 PM 78.8 °F 50.0 °F 36% 29.98 in 10.0 mi WNW 12.7 mph 23.0 mph N/A   Clear
3:15 PM 78.8 °F 50.0 °F 36% 29.98 in 10.0 mi WNW 15.0 mph 20.7 mph N/A   Scattered Clouds
3:35 PM 78.8 °F 50.0 °F 36% 29.98 in 10.0 mi WNW 12.7 mph 19.6 mph N/A   Scattered Clouds
3:55 PM 77.0 °F 50.0 °F 39% 29.98 in 10.0 mi WNW 11.5 mph 19.6 mph N/A   Scattered Clouds
4:15 PM 78.8 °F 48.2 °F 34% 29.98 in 10.0 mi WNW 10.4 mph 18.4 mph N/A   Scattered Clouds
4:35 PM 78.8 °F 50.0 °F 36% 29.98 in 10.0 mi West 13.8 mph 18.4 mph N/A   Scattered Clouds
4:55 PM 78.8 °F 50.0 °F 36% 29.98 in 10.0 mi West 8.1 mph - N/A   Clear
5:15 PM 77.0 °F 51.8 °F 41% 29.97 in 10.0 mi WNW 9.2 mph - N/A   Scattered Clouds
5:35 PM 77.0 °F 51.8 °F 41% 29.96 in 10.0 mi West 8.1 mph - N/A   Scattered Clouds
5:55 PM 77.0 °F 51.8 °F 41% 29.96 in 10.0 mi West 8.1 mph - N/A   Scattered Clouds
6:15 PM 77.0 °F 51.8 °F 41% 29.96 in 10.0 mi West 9.2 mph - N/A   Clear
6:35 PM 75.2 °F 51.8 °F 44% 29.95 in 10.0 mi West 6.9 mph - N/A   Clear
6:55 PM 73.4 °F 51.8 °F 47% 29.96 in 10.0 mi West 8.1 mph - N/A   Clear
7:15 PM 71.6 °F 53.6 °F 53% 29.96 in 10.0 mi West 6.9 mph - N/A   Clear
7:35 PM 71.6 °F 53.6 °F 53% 29.97 in 10.0 mi West 6.9 mph - N/A   Clear
7:55 PM 69.8 °F 53.6 °F 56% 29.97 in 10.0 mi West 5.8 mph - N/A   Clear
8:15 PM 68.0 °F 53.6 °F 60% 29.97 in 10.0 mi NW 4.6 mph - N/A   Clear
8:35 PM 68.0 °F 53.6 °F 60% 29.98 in 10.0 mi West 4.6 mph - N/A   Clear
8:55 PM 64.4 °F 55.4 °F 73% 29.99 in 10.0 mi NW 3.5 mph - N/A   Clear
9:15 PM 64.4 °F 53.6 °F 68% 29.99 in 10.0 mi NW 3.5 mph - N/A   Clear
9:35 PM 62.6 °F 55.4 °F 77% 29.99 in 10.0 mi WNW 3.5 mph - N/A   Clear
9:55 PM 62.6 °F 57.2 °F 82% 29.99 in 10.0 mi NW 3.5 mph - N/A   Clear
10:15 PM 62.6 °F 55.4 °F 77% 30.00 in 10.0 mi NW 5.8 mph - N/A   Clear
10:35 PM 60.8 °F 55.4 °F 82% 30.00 in 10.0 mi Calm Calm - N/A   Clear
10:55 PM 59.0 °F 55.4 °F 88% 30.00 in 10.0 mi Calm Calm - N/A   Clear
11:15 PM 59.0 °F 55.4 °F 88% 30.00 in 10.0 mi Calm Calm - N/A   Clear
11:35 PM 59.0 °F 55.4 °F 88% 30.00 in 10.0 mi Calm Calm - N/A   Clear
11:55 PM 57.2 °F 55.4 °F 94% 30.00 in 10.0 mi Calm Calm - N/A   Clear